DW8343 Weather Reports


time (UTC)temp
C
wind
direction
speed
KPH
gust
KPH
rain 1hr
cm
rain 24hr
cm
rain mn
cm
humidity
%
barometer
mb
20260901112952 27 240 0.0 3.2 0.00 0.00 0.00 56 1018.1
20260901112447 27 20 1.6 9.7 0.00 0.00 0.00 56 1018.0
20260901111942 27 265 0.0 6.4 0.00 0.00 0.00 56 1017.9
20260901111440 27 254 3.2 4.8 0.00 0.00 0.00 55 1018.1
20260901110938 27 162 1.6 6.4 0.00 0.00 0.00 55 1018.1
20260901110434 27 156 3.2 6.4 0.00 0.00 0.00 55 1017.8
20260901105930 27 317 3.2 9.7 0.00 0.00 0.00 55 1017.9
20260901105426 27 266 3.2 3.2 0.00 0.00 0.00 55 1017.8
20260901104921 27 291 1.6 3.2 0.00 0.00 0.00 55 1017.9
20260901104416 27 261 3.2 6.4 0.00 0.00 0.00 55 1018.0
20260901103912 26 220 0.0 3.2 0.00 0.00 0.00 55 1018.1
20260901103412 26 283 1.6 4.8 0.00 0.00 0.00 55 1017.8
20260901102907 27 351 0.0 3.2 0.00 0.00 0.00 55 1017.9
20260901102401 27 106 0.0 3.2 0.00 0.00 0.00 55 1017.9
20260901101856 27 256 1.6 3.2 0.00 0.00 0.00 55 1017.9
20260901101351 27 227 0.0 3.2 0.00 0.00 0.00 54 1017.6
20260901100850 27 236 1.6 3.2 0.00 0.00 0.00 54 1017.9
20260901100345 27 167 1.6 3.2 0.00 0.00 0.00 53 1017.7
20260901095839 27 291 1.6 4.8 0.00 0.00 0.00 53 1017.8
20260901095336 27 269 1.6 3.2 0.00 0.00 0.00 52 1017.8
20260901094830 27 247 1.6 4.8 0.00 0.00 0.00 52 1017.8
20260901094325 27 134 1.6 3.2 0.00 0.00 0.00 52 1017.8
20260901093820 27 284 0.0 4.8 0.00 0.00 0.00 52 1017.7
20260901093319 27 285 3.2 3.2 0.00 0.00 0.00 52 1017.6
20260901092815 26 289 0.0 4.8 0.00 0.00 0.00 53 1017.6
20260901092306 26 74 1.6 3.2 0.00 0.00 0.00 53 1017.6
20260901091800 26 104 1.6 1.6 0.00 0.00 0.00 54 1017.5
20260901091255 26 102 3.2 3.2 0.00 0.00 0.00 54 1017.8
20260901090750 26 102 0.0 1.6 0.00 0.00 0.00 55 1017.7
20260901090245 26 96 0.0 1.6 0.00 0.00 0.00 55 1017.5
20260901085741 26 228 0.0 1.6 0.00 0.00 0.00 55 1017.7
20260901085236 26 228 0.0 1.6 0.00 0.00 0.00 55 1017.6
20260901084732 26 228 0.0 1.6 0.00 0.00 0.00 55 1017.4
20260901084228 25 229 0.0 0.0 0.00 0.00 0.00 55 1017.5
20260901083723 26 229 0.0 1.6 0.00 0.00 0.00 55 1017.4
20260901083222 25 229 0.0 1.6 0.00 0.00 0.00 55 1017.4
20260901082721 25 229 0.0 1.6 0.00 0.00 0.00 55 1017.3
20260901082217 25 229 0.0 1.6 0.00 0.00 0.00 56 1017.4
20260901081712 25 229 0.0 0.0 0.00 0.00 0.00 56 1017.3
20260901081212 25 229 0.0 0.0 0.00 0.00 0.00 56 1017.4
20260901080707 25 229 0.0 0.0 0.00 0.00 0.00 57 1017.4
20260901080206 25 229 0.0 0.0 0.00 0.00 0.00 57 1017.3
20260901075701 25 229 0.0 0.0 0.00 0.00 0.00 57 1017.4
20260901075200 25 229 0.0 0.0 0.00 0.00 0.00 57 1017.4
20260901074659 25 229 0.0 0.0 0.00 0.00 0.00 56 1017.5
20260901074154 25 229 0.0 0.0 0.00 0.00 0.00 57 1017.6
20260901073651 25 229 0.0 0.0 0.00 0.00 0.00 56 1017.2
20260901073146 25 229 0.0 0.0 0.00 0.00 0.00 56 1017.3
20260901072641 26 229 0.0 0.0 0.00 0.00 0.00 55 1017.3
20260901072136 26 229 0.0 0.0 0.00 0.00 0.00 55 1017.4
20260901071631 26 229 0.0 0.0 0.00 0.00 0.00 55 1017.3
20260901071130 26 229 0.0 0.0 0.00 0.00 0.00 55 1017.4
20260901070624 26 229 0.0 0.0 0.00 0.00 0.00 54 1017.3
20260901070120 26 229 0.0 0.0 0.00 0.00 0.00 53 1017.4
20260901065609 27 229 0.0 0.0 0.00 0.00 0.00 52 1017.4
20260901065108 27 229 0.0 0.0 0.00 0.00 0.00 51 1017.4
20260901064606 27 229 0.0 0.0 0.00 0.00 0.00 51 1017.4
20260901064102 27 229 0.0 0.0 0.00 0.00 0.00 51 1017.4
20260901063553 27 229 0.0 1.6 0.00 0.00 0.00 50 1017.4
20260901063048 27 229 0.0 0.0 0.00 0.00 0.00 51 1017.4
20260901062544 27 229 0.0 0.0 0.00 0.00 0.00 50 1017.3
20260901062040 27 229 0.0 0.0 0.00 0.00 0.00 50 1017.4
20260901061536 27 229 0.0 0.0 0.00 0.00 0.00 50 1017.3
20260901061031 27 229 0.0 0.0 0.00 0.00 0.00 49 1017.4
20260901060530 27 229 0.0 0.0 0.00 0.00 0.00 50 1017.3
20260901060025 27 229 0.0 1.6 0.00 0.00 0.00 49 1017.5
20260901055516 27 229 0.0 0.0 0.00 0.00 0.00 49 1017.3
20260901055013 28 229 0.0 0.0 0.00 0.00 0.00 49 1017.5
20260901054509 28 229 0.0 0.0 0.00 0.00 0.00 49 1017.6
20260901054004 28 229 0.0 0.0 0.00 0.00 0.00 48 1017.4
20260901053454 28 229 0.0 0.0 0.00 0.00 0.00 47 1017.3
20260901052949 28 229 0.0 1.6 0.00 0.00 0.00 46 1017.4
20260901052446 28 169 0.0 1.6 0.00 0.00 0.00 47 1017.4
20260901051944 28 165 0.0 1.6 0.00 0.00 0.00 47 1017.3
20260901051439 28 165 0.0 1.6 0.00 0.00 0.00 46 1017.2
20260901050933 28 97 0.0 1.6 0.00 0.00 0.00 46 1017.3
20260901050429 29 70 0.0 0.0 0.00 0.00 0.00 46 1017.3
20260901045928 29 138 0.0 0.0 0.00 0.00 0.00 46 1017.2
20260901045423 29 173 0.0 0.0 0.00 0.00 0.00 47 1017.2
20260901044918 29 173 0.0 0.0 0.00 0.00 0.00 45 1017.3
20260901044415 29 117 0.0 0.0 0.00 0.00 0.00 45 1017.2
20260901043911 30 83 0.0 1.6 0.00 0.00 0.00 44 1017.2
20260901043407 30 268 1.6 1.6 0.00 0.00 0.00 44 1017.2
20260901042906 30 269 0.0 0.0 0.00 0.00 0.00 45 1017.2
20260901042401 30 269 1.6 1.6 0.00 0.00 0.00 43 1017.1
20260901041856 30 169 0.0 4.8 0.00 0.00 0.00 42 1017.0
20260901041351 30 14 0.0 1.6 0.00 0.00 0.00 42 1016.9
20260901040845 31 61 1.6 3.2 0.00 0.00 0.00 42 1017.1
20260901040344 31 211 0.0 1.6 0.00 0.00 0.00 42 1017.0
20260901035839 31 104 1.6 3.2 0.00 0.00 0.00 41 1017.0
20260901035337 31 64 0.0 3.2 0.00 0.00 0.00 41 1017.0
20260901034836 31 236 0.0 3.2 0.00 0.00 0.00 41 1017.2
20260901034332 31 177 3.2 3.2 0.00 0.00 0.00 41 1017.0
20260901033831 31 242 1.6 3.2 0.00 0.00 0.00 41 1016.9
20260901033330 31 230 1.6 3.2 0.00 0.00 0.00 40 1016.8
20260901032829 31 290 1.6 9.7 0.00 0.00 0.00 40 1017.0
20260901032329 31 215 0.0 4.8 0.00 0.00 0.00 41 1016.9
20260901031824 31 224 0.0 3.2 0.00 0.00 0.00 41 1016.9
20260901031320 31 283 1.6 4.8 0.00 0.00 0.00 40 1016.9
20260901030819 31 234 0.0 4.8 0.00 0.00 0.00 41 1016.8
20260901030314 31 326 1.6 3.2 0.00 0.00 0.00 40 1016.7
20260901025813 31 285 1.6 3.2 0.00 0.00 0.00 40 1016.5
20260901025308 31 30 0.0 3.2 0.00 0.00 0.00 40 1016.5
20260901024758 31 187 0.0 3.2 0.00 0.00 0.00 40 1016.6
20260901024257 31 225 1.6 3.2 0.00 0.00 0.00 39 1016.5
20260901023755 31 286 0.0 3.2 0.00 0.00 0.00 39 1016.4
20260901023250 32 274 3.2 4.8 0.00 0.00 0.00 39 1016.5
20260901022746 32 145 0.0 1.6 0.00 0.00 0.00 39 1016.2
20260901022242 32 183 0.0 1.6 0.00 0.00 0.00 39 1016.1
20260901021736 32 84 0.0 1.6 0.00 0.00 0.00 38 1015.7
20260901021232 32 131 0.0 3.2 0.00 0.00 0.00 38 1015.8
20260901020727 32 136 0.0 3.2 0.00 0.00 0.00 37 1015.8
20260901020222 32 80 0.0 1.6 0.00 0.00 0.00 37 1015.7
20260901015717 33 43 0.0 3.2 0.00 0.00 0.00 37 1015.8
20260901015212 33 54 0.0 3.2 0.00 0.00 0.00 36 1015.6
20260901014706 33 19 0.0 1.6 0.00 0.00 0.00 36 1015.5
20260901014203 33 306 0.0 4.8 0.00 0.00 0.00 35 1015.6
20260901013653 33 112 0.0 4.8 0.00 0.00 0.00 35 1015.6
20260901013148 33 318 3.2 4.8 0.00 0.00 0.00 35 1015.5
20260901012643 33 125 0.0 4.8 0.00 0.00 0.00 34 1015.5
20260901012138 34 14 0.0 4.8 0.00 0.00 0.00 34 1015.3
20260901011634 34 89 6.4 6.4 0.00 0.00 0.00 34 1015.3
20260901011133 34 210 3.2 9.7 0.00 0.00 0.00 34 1015.2
20260901010628 34 33 1.6 3.2 0.00 0.00 0.00 34 1015.3
20260901010127 35 40 1.6 4.8 0.00 0.00 0.00 33 1015.1
20260901005626 35 49 1.6 6.4 0.00 0.00 0.00 34 1015.1
20260901005121 35 205 1.6 9.7 0.00 0.00 0.00 33 1015.1
20260901004620 35 36 0.0 3.2 0.00 0.00 0.00 33 1015.1
20260901004116 35 216 1.6 1.6 0.00 0.00 0.00 33 1015.1
20260901003611 35 71 1.6 3.2 0.00 0.00 0.00 33 1015.2
20260901003110 35 45 3.2 9.7 0.00 0.00 0.00 33 1015.2
20260901002609 35 229 4.8 6.4 0.00 0.00 0.00 33 1014.9
20260901002104 35 356 4.8 6.4 0.00 0.00 0.00 33 1015.0
20260901001559 36 287 0.0 11.3 0.00 0.00 0.00 33 1014.9
20260901001054 36 23 4.8 6.4 0.00 0.00 0.00 32 1015.0
20260901000549 36 20 0.0 3.2 0.00 0.00 0.00 32 1015.2
20260901000045 36 183 3.2 4.8 0.00 0.00 0.00 32 1015.2
20260831235538 36 296 6.4 9.7 0.00 0.00 0.00 32 1014.9
20260831235034 36 296 3.2 6.4 0.00 0.00 0.00 32 1015.1
20260831234528 36 33 1.6 11.3 0.00 0.00 0.00 31 1015.1
20260831234024 36 67 1.6 3.2 0.00 0.00 0.00 32 1015.2
20260831233519 36 13 1.6 4.8 0.00 0.00 0.00 32 1015.3
20260831233015 36 292 1.6 3.2 0.00 0.00 0.00 32 1015.2
20260831232510 37 70 1.6 4.8 0.00 0.00 0.00 32 1015.1
20260831232006 37 5 1.6 11.3 0.00 0.00 0.00 32 1015.2
20260831231502 37 260 1.6 11.3 0.00 0.00 0.00 32 1015.0
20260831230957 37 359 0.0 9.7 0.00 0.00 0.00 32 1015.2
20260831230452 37 183 3.2 11.3 0.00 0.00 0.00 32 1015.3
20260831225947 37 278 6.4 12.9 0.00 0.00 0.00 31 1015.0
20260831225443 37 39 1.6 6.4 0.00 0.00 0.00 32 1015.0
20260831224938 37 35 6.4 9.7 0.00 0.00 0.00 31 1015.2
20260831224437 37 251 8.0 12.9 0.00 0.00 0.00 31 1015.1
20260831223932 37 56 4.8 9.7 0.00 0.00 0.00 31 1015.0
20260831223427 38 262 1.6 11.3 0.00 0.00 0.00 31 1014.9
20260831222924 38 237 4.8 11.3 0.00 0.00 0.00 30 1015.2
20260831222419 38 28 1.6 6.4 0.00 0.00 0.00 30 1015.0
20260831221914 38 215 3.2 4.8 0.00 0.00 0.00 30 1015.0
20260831221410 38 153 0.0 4.8 0.00 0.00 0.00 30 1014.9
20260831220905 38 129 4.8 9.7 0.00 0.00 0.00 31 1015.1
20260831220355 38 215 1.6 6.4 0.00 0.00 0.00 30 1014.9
20260831215850 39 217 3.2 14.5 0.00 0.00 0.00 31 1015.1
20260831215345 39 290 3.2 11.3 0.00 0.00 0.00 29 1015.0
20260831214842 39 271 6.4 11.3 0.00 0.00 0.00 29 1015.0
20260831214339 40 265 4.8 4.8 0.00 0.00 0.00 28 1015.0
20260831213833 39 276 3.2 4.8 0.00 0.00 0.00 30 1015.3
20260831213330 40 252 8.0 14.5 0.00 0.00 0.00 29 1015.4
20260831212825 40 244 3.2 9.7 0.00 0.00 0.00 29 1015.4
20260831212322 40 261 1.6 6.4 0.00 0.00 0.00 29 1015.5
20260831211820 39 285 1.6 4.8 0.00 0.00 0.00 30 1015.6
20260831211315 38 263 1.6 9.7 0.00 0.00 0.00 30 1015.4
20260831210810 39 166 8.0 14.5 0.00 0.00 0.00 30 1015.5
20260831210307 39 269 6.4 11.3 0.00 0.00 0.00 31 1015.7
20260831205806 38 295 6.4 11.3 0.00 0.00 0.00 30 1015.6
20260831205305 38 160 3.2 4.8 0.00 0.00 0.00 30 1015.9
20260831204755 37 222 0.0 4.8 0.00 0.00 0.00 32 1015.7
20260831204254 38 298 3.2 4.8 0.00 0.00 0.00 31 1015.9
20260831203754 38 322 4.8 9.7 0.00 0.00 0.00 30 1015.6
20260831203248 40 249 3.2 4.8 0.00 0.00 0.00 29 1015.8
20260831202747 39 86 4.8 17.7 0.00 0.00 0.00 30 1015.8
20260831202242 40 212 3.2 9.7 0.00 0.00 0.00 29 1015.8
20260831201737 39 30 3.2 6.4 0.00 0.00 0.00 30 1016.1
20260831201236 39 50 1.6 4.8 0.00 0.00 0.00 30 1016.2
20260831200732 39 41 4.8 11.3 0.00 0.00 0.00 30 1016.2
20260831200232 39 338 3.2 4.8 0.00 0.00 0.00 30 1016.3
20260831195727 39 253 6.4 9.7 0.00 0.00 0.00 30 1016.1
20260831195223 39 41 3.2 9.7 0.00 0.00 0.00 30 1016.5
20260831194718 40 110 3.2 14.5 0.00 0.00 0.00 28 1016.6
20260831194214 39 331 1.6 4.8 0.00 0.00 0.00 29 1016.5
20260831193707 38 275 1.6 11.3 0.00 0.00 0.00 30 1016.4
20260831193202 39 239 8.0 12.9 0.00 0.00 0.00 29 1016.4
20260831192657 38 249 1.6 4.8 0.00 0.00 0.00 30 1016.5
20260831192153 39 183 8.0 9.7 0.00 0.00 0.00 31 1016.6
20260831191648 38 291 4.8 6.4 0.00 0.00 0.00 31 1016.6
20260831191144 38 267 6.4 9.7 0.00 0.00 0.00 32 1016.6
20260831190639 37 51 1.6 11.3 0.00 0.00 0.00 32 1016.7
20260831190138 38 189 3.2 6.4 0.00 0.00 0.00 33 1016.9
20260831185634 39 235 4.8 6.4 0.00 0.00 0.00 31 1016.9
20260831185130 38 135 1.6 4.8 0.00 0.00 0.00 31 1016.7
20260831184629 38 246 4.8 6.4 0.00 0.00 0.00 31 1017.0
20260831184125 37 205 3.2 4.8 0.00 0.00 0.00 32 1017.0
20260831183619 38 337 3.2 6.4 0.00 0.00 0.00 33 1017.1
20260831183118 38 168 3.2 9.7 0.00 0.00 0.00 32 1017.2
20260831182617 38 243 0.0 3.2 0.00 0.00 0.00 32 1017.2
20260831182113 37 256 4.8 9.7 0.00 0.00 0.00 32 1017.3
20260831181608 38 252 1.6 11.3 0.00 0.00 0.00 33 1017.1
20260831181107 38 51 3.2 16.1 0.00 0.00 0.00 33 1017.3
20260831180602 38 206 4.8 11.3 0.00 0.00 0.00 32 1017.2
20260831180058 38 28 1.6 16.1 0.00 0.00 0.00 34 1017.2
20260831175547 37 235 4.8 6.4 0.00 0.00 0.00 35 1017.4
20260831175044 38 308 1.6 9.7 0.00 0.00 0.00 35 1017.5
20260831174538 38 265 6.4 12.9 0.00 0.00 0.00 35 1017.7
20260831174032 37 215 3.2 11.3 0.00 0.00 0.00 36 1017.5
20260831173531 37 252 4.8 11.3 0.00 0.00 0.00 36 1017.6
20260831173028 36 211 4.8 20.9 0.00 0.00 0.00 38 1017.8
20260831172527 37 244 6.4 12.9 0.00 0.00 0.00 36 1017.9
20260831172022 36 77 1.6 11.3 0.00 0.00 0.00 39 1017.9
20260831171518 36 243 9.7 12.9 0.00 0.00 0.00 38 1017.9
20260831171015 36 262 6.4 11.3 0.00 0.00 0.00 39 1017.9
20260831170511 37 270 6.4 9.7 0.00 0.00 0.00 38 1018.1
20260831170009 37 119 3.2 9.7 0.00 0.00 0.00 38 1018.0
20260831165509 37 97 3.2 9.7 0.00 0.00 0.00 39 1018.1
20260831165006 36 208 4.8 9.7 0.00 0.00 0.00 40 1018.1
20260831164501 36 32 0.0 3.2 0.00 0.00 0.00 41 1018.1
20260831163956 36 268 4.8 11.3 0.00 0.00 0.00 40 1018.0
20260831163451 36 244 3.2 9.7 0.00 0.00 0.00 41 1018.1
20260831162950 36 265 1.6 12.9 0.00 0.00 0.00 42 1018.2
20260831162446 36 343 1.6 4.8 0.00 0.00 0.00 42 1018.1
20260831161943 35 269 4.8 6.4 0.00 0.00 0.00 42 1018.1
20260831161441 35 239 4.8 9.7 0.00 0.00 0.00 43 1018.1
20260831160936 35 284 9.7 17.7 0.00 0.00 0.00 43 1018.2
20260831160436 35 270 6.4 11.3 0.00 0.00 0.00 42 1018.1
20260831155930 35 131 6.4 6.4 0.00 0.00 0.00 43 1018.2
20260831155425 35 230 3.2 11.3 0.00 0.00 0.00 44 1018.1
20260831154920 35 310 6.4 9.7 0.00 0.00 0.00 43 1018.1
20260831154417 35 261 4.8 9.7 0.00 0.00 0.00 44 1018.0
20260831153915 35 227 3.2 4.8 0.00 0.00 0.00 43 1018.2
20260831153411 35 262 1.6 3.2 0.00 0.00 0.00 44 1018.3
20260831152907 34 246 6.4 9.7 0.00 0.00 0.00 45 1018.0
20260831152402 33 175 4.8 6.4 0.00 0.00 0.00 46 1018.1
20260831151857 33 263 3.2 4.8 0.00 0.00 0.00 46 1018.1
20260831151356 33 17 1.6 3.2 0.00 0.00 0.00 46 1018.1
20260831150851 33 118 3.2 4.8 0.00 0.00 0.00 47 1018.2
20260831150347 33 251 1.6 9.7 0.00 0.00 0.00 47 1018.4
20260831145846 33 225 3.2 3.2 0.00 0.00 0.00 47 1018.3
20260831145343 32 297 4.8 9.7 0.00 0.00 0.00 48 1018.4
20260831144838 32 249 4.8 9.7 0.00 0.00 0.00 48 1018.3
20260831144334 33 284 1.6 3.2 0.00 0.00 0.00 48 1018.4
20260831143828 32 275 1.6 9.7 0.00 0.00 0.00 49 1018.2
20260831143323 32 270 3.2 4.8 0.00 0.00 0.00 50 1018.3
20260831142819 31 274 1.6 6.4 0.00 0.00 0.00 50 1018.4
20260831142314 31 191 1.6 3.2 0.00 0.00 0.00 51 1018.3
20260831141809 31 248 3.2 4.8 0.00 0.00 0.00 50 1018.3
20260831141303 31 176 1.6 6.4 0.00 0.00 0.00 51 1018.3
20260831140758 31 91 4.8 6.4 0.00 0.00 0.00 52 1018.5
20260831140253 31 267 1.6 4.8 0.00 0.00 0.00 52 1018.2
20260831135750 31 28 1.6 4.8 0.00 0.00 0.00 52 1018.4
20260831135246 30 30 1.6 1.6 0.00 0.00 0.00 53 1018.4
20260831134742 30 246 1.6 4.8 0.00 0.00 0.00 52 1018.4
20260831134238 29 263 3.2 6.4 0.00 0.00 0.00 53 1018.4
20260831133736 29 345 0.0 3.2 0.00 0.00 0.00 53 1018.3
20260831133231 29 62 1.6 3.2 0.00 0.00 0.00 54 1018.3
20260831132726 29 20 1.6 1.6 0.00 0.00 0.00 53 1018.3
20260831132226 28 270 0.0 1.6 0.00 0.00 0.00 55 1018.1
20260831131721 28 44 0.0 1.6 0.00 0.00 0.00 55 1018.2
20260831131218 27 44 0.0 1.6 0.00 0.00 0.00 56 1018.1
20260831130712 27 139 1.6 1.6 0.00 0.00 0.00 57 1017.9
20260831130208 27 182 0.0 1.6 0.00 0.00 0.00 58 1017.9
20260831125706 26 182 0.0 1.6 0.00 0.00 0.00 58 1017.9
20260831125203 26 183 0.0 3.2 0.00 0.00 0.00 58 1017.9
20260831124657 26 216 1.6 4.8 0.00 0.00 0.00 58 1017.8
20260831124153 26 341 1.6 1.6 0.00 0.00 0.00 58 1017.7
20260831123653 26 330 0.0 1.6 0.00 0.00 0.00 58 1017.7
20260831123151 26 272 0.0 1.6 0.00 0.00 0.00 58 1017.6
20260831122646 26 261 0.0 1.6 0.00 0.00 0.00 57 1017.4
20260831122143 26 240 0.0 1.6 0.00 0.00 0.00 57 1017.4
20260831121641 26 274 0.0 3.2 0.00 0.00 0.00 57 1017.4
20260831121138 26 121 0.0 1.6 0.00 0.00 0.00 57 1017.3
20260831120633 26 153 1.6 4.8 0.00 0.00 0.00 57 1017.2
20260831120128 26 159 0.0 1.6 0.00 0.00 0.00 57 1017.1
20260831115624 26 42 0.0 1.6 0.00 0.00 0.00 56 1017.2
20260831115119 26 326 0.0 3.2 0.00 0.00 0.00 56 1016.9
20260831114618 26 227 1.6 1.6 0.00 0.00 0.00 56 1017.0
20260831114113 26 213 1.6 3.2 0.00 0.00 0.00 56 1016.8
20260831113612 26 284 1.6 3.2 0.00 0.00 0.00 56 1016.7
20260831113108 26 283 0.0 1.6 0.00 0.00 0.00 55 1016.7